Weather History for KMRF - December, 2012

Change the Weather History Date:

Monday, December 10, 2012

  Actual Average Record
Temperature  
Mean Temperature 36 °F -  
Max Temperature 48 °F 55 °F 71 °F (2010)
Min Temperature 23 °F 25 °F 15 °F (2003)
Degree Days  
Heating Degree Days 30    
Moisture  
Dew Point 14 °F    
Average Humidity 45    
Maximum Humidity 75    
Minimum Humidity 24    
Precipitation  
Precipitation 0.00 in - - ()
Sea Level Pressure  
Sea Level Pressure 30.08 in    
Wind  
Wind Speed 14 mph (NW)    
Max Wind Speed 29 mph    
Max Gust Speed 33 mph    
Visibility 10 miles    
Events      
Averages and records for this station are not official NWS values.
T = Trace of Precipitation, MM = Missing Value Source: NWS Daily Summary

Daily Weather History Graph

Daily Weather History Graph

Search for Another Location

Airport or City:

Trip Planner

Search our weather history database for the weather conditions in past years. The results will help you decide how hot, cold, wet, or windy it might be!

Date:

Astronomy

Dec. 10, 2012 Rise Set
Actual Time 7:42 AM CST 5:55 PM CST
Civil Twilight 7:15 AM CST 6:22 PM CST
Nautical Twilight 6:46 AM CST 6:52 PM CST
Astronomical Twilight 6:16 AM CST 7:21 PM CST
Moon 4:36 AM CST (12/10) 3:41 PM CST (12/10)
Length of Visible Light 11h 06m
Length of Day
10h 13m
Waning Crescent, 10% of the Moon is Illuminated
Dec 10
Waning Crescent
Dec 13
New
Dec 19
First Quarter
Dec 28
Full
Jan 4
Last Quarter

Hourly Weather History & Observations

Time (CST) Temp. Windchill Dew Point Humidity Pressure Visibility Wind Dir Wind Speed Gust Speed Precip Events Conditions
12:15 AM 37.4 °F 25.6 °F 30.2 °F 75% 30.09 in 10.0 mi NNE 26.5 mph - N/A   Clear
12:35 AM 37.4 °F 25.4 °F 28.4 °F 70% 30.09 in 10.0 mi NNE 27.6 mph 32.2 mph N/A   Clear
12:55 AM 35.6 °F 23.2 °F 28.4 °F 75% 30.10 in 10.0 mi NNE 26.5 mph 32.2 mph N/A   Clear
1:15 AM 33.8 °F 20.3 °F 15.8 °F 48% 30.10 in 10.0 mi NNE 28.8 mph 33.4 mph N/A   Clear
1:35 AM 32.0 °F 18.1 °F 14.0 °F 48% 30.11 in 10.0 mi North 27.6 mph 33.4 mph N/A   Clear
2:15 AM 26.6 °F 12.0 °F 19.4 °F 74% 30.13 in 10.0 mi North 23.0 mph 28.8 mph N/A   Clear
2:55 AM 24.8 °F 10.3 °F 17.6 °F 74% 30.12 in 10.0 mi NNE 20.7 mph 26.5 mph N/A   Clear
3:15 AM 24.8 °F 10.3 °F 17.6 °F 74% 30.11 in 10.0 mi NNE 20.7 mph 25.3 mph N/A   Clear
3:35 AM 24.8 °F 11.5 °F 17.6 °F 74% 30.12 in 10.0 mi NNE 17.3 mph 23.0 mph N/A   Clear
3:55 AM 24.8 °F 11.1 °F 15.8 °F 69% 30.12 in 10.0 mi NNE 18.4 mph 26.5 mph N/A   Clear
4:15 AM 24.8 °F 10.3 °F 15.8 °F 69% 30.12 in 10.0 mi NNE 20.7 mph - N/A   Clear
4:35 AM 24.8 °F 11.1 °F 17.6 °F 74% 30.11 in 10.0 mi NNE 18.4 mph - N/A   Clear
4:55 AM 24.8 °F 13.4 °F 15.8 °F 69% 30.11 in 10.0 mi NNE 12.7 mph - N/A   Clear
5:15 AM 24.8 °F 16.1 °F 15.8 °F 69% 30.11 in 10.0 mi NE 8.1 mph - N/A   Clear
5:35 AM 24.8 °F 16.1 °F 14.0 °F 64% 30.11 in 10.0 mi NNE 8.1 mph - N/A   Clear
5:55 AM 24.8 °F 14.6 °F 12.2 °F 59% 30.11 in 10.0 mi NNE 10.4 mph - N/A   Clear
6:15 AM 24.8 °F 14.6 °F 12.2 °F 59% 30.12 in 10.0 mi NNE 10.4 mph - N/A   Scattered Clouds
6:35 AM 24.8 °F 16.1 °F 12.2 °F 59% 30.12 in 10.0 mi NE 8.1 mph - N/A   Partly Cloudy
6:55 AM 24.8 °F 17.9 °F 12.2 °F 59% 30.12 in 10.0 mi NNE 5.8 mph - N/A   Mostly Cloudy
7:15 AM 24.8 °F - 12.2 °F 59% 30.13 in 10.0 mi Calm Calm - N/A   Scattered Clouds
7:35 AM 23.0 °F - 12.2 °F 63% 30.13 in 10.0 mi Calm Calm - N/A   Scattered Clouds
7:55 AM 23.0 °F - 12.2 °F 63% 30.12 in 10.0 mi Calm Calm - N/A   Partly Cloudy
8:15 AM 24.8 °F - 12.2 °F 59% 30.13 in 10.0 mi Calm Calm - N/A   Clear
8:35 AM 24.8 °F - 12.2 °F 59% 30.13 in 10.0 mi Calm Calm - N/A   Clear
8:55 AM 26.6 °F - 14.0 °F 59% 30.14 in 10.0 mi Calm Calm - N/A   Clear
9:15 AM 28.4 °F - 14.0 °F 55% 30.15 in 10.0 mi Calm Calm - N/A   Clear
9:35 AM 30.2 °F - 15.8 °F 55% 30.14 in 10.0 mi Calm Calm - N/A   Clear
9:55 AM 30.2 °F - 15.8 °F 55% 30.15 in 10.0 mi Calm Calm - N/A   Clear
10:15 AM 32.0 °F - 15.8 °F 51% 30.15 in 10.0 mi Calm Calm - N/A   Clear
10:35 AM 33.8 °F - 17.6 °F 52% 30.15 in 10.0 mi Calm Calm - N/A   Clear
10:55 AM 33.8 °F - 15.8 °F 48% 30.15 in 10.0 mi Calm Calm - N/A   Clear
11:15 AM 35.6 °F - 17.6 °F 48% 30.15 in 10.0 mi Calm Calm - N/A   Clear
11:35 AM 37.4 °F - 19.4 °F 48% 30.13 in 10.0 mi Calm Calm - N/A   Clear
11:55 AM 44.6 °F 38.4 °F 17.6 °F 34% 30.12 in 10.0 mi West 12.7 mph - N/A   Clear
12:15 PM 44.6 °F 37.8 °F 15.8 °F 31% 30.11 in 10.0 mi West 15.0 mph 19.6 mph N/A   Clear
12:35 PM 46.4 °F 40.4 °F 15.8 °F 29% 30.10 in 10.0 mi West 13.8 mph 23.0 mph N/A   Clear
12:55 PM 46.4 °F 40.1 °F 14.0 °F 27% 30.08 in 10.0 mi West 15.0 mph 21.9 mph N/A   Clear
1:15 PM 46.4 °F 40.1 °F 14.0 °F 27% 30.06 in 10.0 mi West 15.0 mph 18.4 mph N/A   Clear
1:35 PM 48.2 °F - 14.0 °F 25% 30.05 in 10.0 mi West 13.8 mph 20.7 mph N/A   Clear
1:55 PM 48.2 °F - 15.8 °F 27% 30.04 in 10.0 mi West 16.1 mph 25.3 mph N/A   Clear
2:15 PM 48.2 °F - 14.0 °F 25% 30.03 in 10.0 mi West 17.3 mph - N/A   Clear
2:35 PM 48.2 °F - 14.0 °F 25% 30.03 in 10.0 mi West 18.4 mph 25.3 mph N/A   Clear
2:55 PM 48.2 °F - 15.8 °F 27% 30.02 in 10.0 mi West 18.4 mph 23.0 mph N/A   Clear
3:15 PM 48.2 °F - 15.8 °F 27% 30.02 in 10.0 mi West 17.3 mph 21.9 mph N/A   Clear
3:35 PM 48.2 °F - 14.0 °F 25% 30.01 in 10.0 mi West 15.0 mph 23.0 mph N/A   Clear
3:55 PM 48.2 °F - 14.0 °F 25% 30.01 in 10.0 mi West 15.0 mph 23.0 mph N/A   Clear
4:15 PM 48.2 °F - 12.2 °F 24% 30.00 in 10.0 mi West 19.6 mph 25.3 mph N/A   Clear
4:35 PM 46.4 °F 39.2 °F 12.2 °F 25% 30.01 in 10.0 mi West 18.4 mph 23.0 mph N/A   Clear
4:55 PM 46.4 °F 39.8 °F 12.2 °F 25% 30.01 in 10.0 mi West 16.1 mph 20.7 mph N/A   Clear
5:15 PM 46.4 °F 39.8 °F 12.2 °F 25% 30.01 in 10.0 mi West 16.1 mph - N/A   Clear
5:35 PM 44.6 °F 38.4 °F 10.4 °F 25% 30.01 in 10.0 mi West 12.7 mph - N/A   Clear
5:55 PM 42.8 °F 37.0 °F 10.4 °F 27% 30.01 in 10.0 mi West 10.4 mph - N/A   Clear
6:15 PM 39.2 °F 35.0 °F 8.6 °F 28% 30.01 in 10.0 mi West 5.8 mph - N/A   Clear
6:35 PM 39.2 °F 35.0 °F 10.4 °F 31% 30.02 in 10.0 mi WNW 5.8 mph - N/A   Clear
6:55 PM 37.4 °F - 8.6 °F 30% 30.02 in 10.0 mi Calm Calm - N/A   Clear
7:15 PM 37.4 °F - 8.6 °F 30% 30.02 in 10.0 mi Calm Calm - N/A   Clear
7:35 PM 35.6 °F - 8.6 °F 33% 30.03 in 10.0 mi Calm Calm - N/A   Clear
7:55 PM 33.8 °F - 8.6 °F 35% 30.03 in 10.0 mi Calm Calm - N/A   Clear
8:15 PM 33.8 °F - 8.6 °F 35% 30.03 in 10.0 mi Calm Calm - N/A   Clear
8:55 PM 30.2 °F - 6.8 °F 37% 30.03 in 10.0 mi Calm Calm - N/A   Clear
9:15 PM 33.8 °F - 8.6 °F 35% 30.03 in 10.0 mi Calm Calm - N/A   Clear
9:35 PM 35.6 °F - 8.6 °F 33% 30.03 in 10.0 mi Calm Calm - N/A   Clear
9:55 PM 32.0 °F - 6.8 °F 35% 30.03 in 10.0 mi Calm Calm - N/A   Clear
10:15 PM 32.0 °F - 8.6 °F 38% 30.03 in 10.0 mi Calm Calm - N/A   Clear
10:35 PM 30.2 °F - 8.6 °F 40% 30.03 in 10.0 mi Calm Calm - N/A   Clear
10:55 PM 28.4 °F - 6.8 °F 40% 30.03 in 10.0 mi Calm Calm - N/A   Clear
11:15 PM 32.0 °F - 8.6 °F 38% 30.03 in 10.0 mi Calm Calm - N/A   Clear
11:35 PM 33.8 °F - 6.8 °F 32% 30.03 in 10.0 mi Calm Calm - N/A   Clear
11:55 PM 28.4 °F - 3.2 °F 34% 30.03 in 10.0 mi Calm Calm - N/A   Clear